Location: Biharia
(46.4333°N, 22.8000°E)
Time: 00:23:23
(UTC+00:00)

Aureole 2 - Pass Details

Date: 16 October 2021
Orbit: 365 x 885 km, 73.9° (Epoch: 26 November)

Event Time Altitude Azimuth Distance (km) Brightness Sun altitude
Rises 16:16:28 0° 336° (NNW) 2,223 8.2 -7.0°
Reaches altitude 10° 16:18:26 10° 335° (NNW) 1,372 7.1 -7.3°
Maximum altitude 16:21:22 77° 249° (WSW) 394 4.2 -7.8°
Drops below altitude 10° 16:24:27 10° 164° (SSE) 1,441 6.8 -8.4°
Sets 16:26:34 0° 163° (SSE) 2,351 7.9 -8.7°
